Theta_e
310 310 310 311 310 312 310 309 310 310 311 311 312 313 313 313 312 311 311 311 310 311 312 311 311 312 311 311 310 309 307 306 302 305 308 309 309 309 309 310 311 312 312
307 307 307 306 307 305 305 305 306 306 307 307 308 308 309 309 310 309 309 309 309 309 310 308 308 309 308 308 307 306 306 307 304 301 304 305 306 308 307 308 309 309 310
304 303 302 301 301 300 300 301 302 302 302 303 303 303 304 305 306 307 308 308 309 309 307 307 307 308 307 306 306 305 305 305 305 302 301 304 304 306 305 307 308 308 308
301 299 298 298 298 298 299 299 300 300 300 300 301 302 303 303 303 304 306 307 307 307 308 309 308 307 306 306 305 305 304 303 303 302 301 301 302 305 304 301 302 305 304
297 296 296 297 297 297 297 297 298 298 298 299 299 300 300 300 302 303 305 306 306 304 306 307 307 308 308 308 306 305 305 303 302 302 301 302 301 302 302 303 300 302 303
295 295 295 295 295 294 295 295 296 296 296 297 297 298 297 298 299 300 302 303 303 303 304 305 306 306 306 305 305 306 306 304 302 302 301 300 301 302 303 303 302 300 297
293 294 294 293 293 293 293 294 294 294 294 295 296 296 296 297 297 298 300 302 301 302 303 304 303 304 305 305 304 304 305 304 305 304 301 301 301 303 303 301 303 302 301
291 291 292 292 291 292 292 292 292 293 293 295 297 298 297 298 298 297 299 301 301 302 302 302 302 302 303 303 303 304 305 305 305 305 303 303 304 305 305 304 303 304 304
289 290 291 291 290 291 291 291 292 293 295 295 297 298 299 300 297 296 298 299 299 300 301 302 302 302 301 299 302 302 302 303 305 304 302 301 300 299 301 303 300 299 298
290 290 290 290 290 290 291 293 294 295 295 296 297 298 299 299 297 296 297 298 297 299 301 302 300 300 298 297 299 300 299 301 303 303 304 302 300 301 300 301 301 298 299
291 291 290 289 290 292 292 293 293 293 294 295 296 297 299 299 299 296 296 298 298 298 299 300 303 299 297 296 296 298 299 301 301 302 302 302 304 303 303 302 302 300 299
291 290 290 291 292 292 292 292 293 293 293 294 294 295 297 297 297 296 295 295 296 296 296 299 301 298 296 295 296 296 295 296 298 298 298 298 300 302 303 303 302 302 304
290 290 290 291 291 291 291 291 292 293 292 292 293 291 291 294 294 295 294 293 294 295 298 299 297 295 296 301 300 297 299 308 305 300 298 298 300 302 305 304 304 304 304
289 289 289 289 290 290 290 291 291 291 291 291 288 288 289 290 292 293 293 295 298 302 303 303 301 300 299 300 301 302 304 305 306 305 301 302 305 304 304 304 303 302 301
289 289 289 289 288 288 290 290 290 291 291 289 288 288 287 288 291 291 291 294 298 299 299 302 300 298 298 297 298 299 301 303 308 308 309 304 303 304 304 305 305 303 303
287 288 288 288 288 288 288 288 291 291 291 290 289 289 289 290 290 291 292 293 294 293 299 296 295 294 293 293 293 295 298 301 311 311 309 307 306 306 305 306 308 308 306
287 287 288 288 287 287 287 287 286 289 291 290 289 289 289 289 290 290 291 291 292 294 294 293 292 291 291 291 291 292 294 299 308 312 311 311 311 311 309 311 311 309 306
288 288 288 288 287 287 287 287 287 286 285 286 288 288 288 289 289 289 290 293 294 293 293 292 290 290 289 289 289 290 292 295 298 305 315 314 315 313 311 310 309 308 306
287 287 288 288 288 287 287 287 286 286 285 285 285 286 287 288 289 289 289 289 289 290 289 289 290 288 288 287 288 289 290 292 294 300 311 313 313 312 309 307 303 297 299
284 285 285 285 286 286 285 285 285 285 284 283 283 283 285 286 285 285 287 287 287 288 287 287 287 287 286 286 286 287 288 289 292 296 306 310 309 308 306 304 303 301 299
283 283 283 283 283 284 284 283 284 283 283 282 282 283 283 283 283 284 284 285 285 286 287 286 286 286 285 285 285 285 286 287 289 292 298 311 310 307 306 305 304 302 301
284 283 282 282 282 282 282 282 282 282 282 281 281 282 282 282 282 282 282 283 285 286 286 286 285 285 284 284 284 284 284 285 286 290 295 311 312 310 307 304 303 302 301
283 282 282 282 282 282 281 281 281 280 280 280 281 281 281 281 281 280 281 282 283 284 285 285 285 285 285 284 284 284 283 283 285 289 295 304 310 309 307 304 302 302 301
282 281 280 280 281 281 280 279 279 279 278 278 279 279 279 280 280 280 280 281 282 283 284 284 284 284 284 284 284 284 284 284 287 289 296 299 302 308 307 305 303 302 300
281 280 279 279 279 279 279 279 278 278 278 278 278 278 278 279 279 280 280 281 281 282 282 283 283 283 283 283 283 283 283 283 285 286 294 296 299 300 305 306 304 303 302
281 280 279 278 278 278 278 278 278 278 277 278 278 278 278 278 279 279 280 280 281 281 281 282 282 282 283 282 282 282 283 283 285 285 292 293 293 294 298 304 305 303 303
Wind_Speed
13 8 9 8 9 7 7 7 6 6 6 6 6 5 4 4 4 4 4 6 6 7 6 7 8 7 5 5 5 6 7 8 13 12 11 10 10 11 12 13 12 11 11
6 7 8 8 7 9 9 9 8 8 7 7 7 6 5 6 5 5 6 6 7 8 8 5 6 5 7 6 6 9 10 11 12 17 12 10 11 10 13 14 12 11 12
8 8 8 9 9 9 9 9 8 8 7 7 6 6 7 7 8 7 8 9 8 8 6 7 8 8 8 7 9 10 10 9 10 12 13 10 12 10 11 12 12 11 10
9 8 8 8 8 8 7 7 7 6 6 7 7 8 7 8 9 10 9 9 9 7 7 8 10 10 10 10 11 12 12 12 12 11 10 10 11 10 9 8 11 9 9
8 8 7 7 7 7 7 7 7 7 7 7 7 8 7 8 7 8 9 9 8 8 10 10 10 12 18 17 12 14 14 13 12 11 11 11 10 10 10 8 9 8 7
8 7 7 7 7 7 7 7 7 7 7 7 7 7 8 7 11 14 12 9 9 10 10 11 11 17 15 21 23 24 20 15 17 13 12 12 16 12 9 9 9 8 8
7 7 7 7 7 7 7 6 6 7 7 7 7 7 8 8 12 11 13 8 9 10 11 11 12 12 17 15 20 23 24 25 26 19 17 17 16 14 11 9 10 9 10
7 7 7 7 7 7 7 6 6 4 6 6 7 8 7 7 12 11 12 9 9 11 12 13 14 17 17 15 16 17 17 16 18 13 17 18 16 15 12 9 10 9 7
7 7 8 7 7 7 7 7 6 5 7 7 8 9 9 8 11 12 11 10 10 13 13 14 14 17 23 21 15 18 18 19 18 24 25 25 21 16 14 5 7 6 7
9 8 8 7 7 6 6 6 7 6 7 7 9 8 11 10 11 12 11 8 11 10 13 14 18 17 25 26 17 16 18 20 18 17 15 15 18 17 22 14 10 8 6
9 8 7 7 7 6 7 8 8 7 8 8 9 9 9 9 11 13 13 9 9 11 11 13 12 20 20 23 24 15 19 20 18 12 12 10 9 9 9 10 12 10 9
7 6 7 8 8 7 8 7 8 8 8 9 9 9 8 10 13 14 17 16 16 10 12 11 14 21 25 29 22 22 24 22 10 10 8 8 7 7 7 8 10 11 10
9 10 9 9 9 9 9 10 8 8 7 7 7 8 9 9 9 17 18 19 20 9 9 15 25 25 21 15 18 20 18 10 7 6 5 6 7 5 4 6 8 9 8
9 10 9 9 10 9 7 6 6 6 6 6 7 7 8 9 9 11 11 11 13 10 10 9 12 13 13 13 15 14 11 10 10 4 2 3 3 4 4 5 5 6 5
8 7 7 7 8 7 7 5 5 6 7 6 6 7 8 9 11 19 12 8 10 10 10 8 11 13 14 14 14 14 14 14 9 3 3 4 4 4 5 4 5 7 6
7 6 6 5 6 6 5 6 8 10 10 10 13 9 8 12 19 19 20 18 19 19 9 12 11 13 13 14 14 15 13 17 9 6 5 3 4 4 4 4 3 5 6
6 7 5 6 5 6 7 7 8 9 10 10 15 16 19 16 21 25 22 14 15 12 13 12 12 13 13 14 13 13 13 13 13 6 3 2 4 4 4 4 7 7 7
8 11 5 5 5 6 7 7 6 7 8 9 13 14 20 20 21 23 23 11 12 16 12 11 13 14 13 13 14 13 13 13 12 11 6 7 5 4 6 7 6 6 6
6 6 6 5 6 7 7 7 7 7 7 8 10 14 19 21 18 21 22 13 11 12 12 12 13 13 14 14 13 13 14 12 11 12 9 8 7 8 8 8 8 10 9
6 13 9 6 6 7 7 7 7 8 8 9 9 12 11 13 12 13 13 12 11 10 12 12 13 12 13 14 14 14 14 14 14 12 11 9 9 8 7 8 7 7 6
5 6 10 7 8 8 7 8 8 8 8 9 8 12 16 10 10 10 11 11 12 12 13 12 13 13 13 13 15 14 15 13 13 12 12 7 8 8 7 8 8 7 6
6 6 7 8 7 9 8 8 8 8 9 8 8 10 16 9 10 10 10 11 11 11 10 11 11 12 13 14 14 15 15 16 15 14 14 9 8 7 8 7 7 6 6
7 8 8 7 7 9 9 9 9 9 9 9 9 9 10 9 10 10 11 11 10 11 11 11 12 12 13 13 13 13 14 15 14 13 12 12 10 8 7 8 8 8 8
8 9 8 8 8 8 9 10 9 13 10 10 10 9 9 10 10 11 10 10 10 11 11 11 12 17 16 15 14 14 14 15 13 14 16 12 10 9 7 7 9 10 9
8 8 9 8 8 8 8 9 9 10 10 10 10 10 10 10 10 10 10 10 10 11 12 12 11 16 19 23 23 24 22 24 19 18 11 14 15 16 11 7 7 8 8
8 8 8 7 8 8 8 8 9 9 10 10 9 10 10 10 10 11 11 12 11 11 13 10 15 21 22 17 22 24 25 25 22 21 13 12 13 12 10 9 8 4 4
Wind_Direction
60 29 44 36 53 47 53 45 38 42 28 28 20 7 355 353 351 339 312 300 289 286 280 268 270 269 266 268 268 266 268 270 278 280 280 281 269 270 282 286 282 281 281
67 51 41 40 48 53 50 41 35 42 34 31 23 6 350 341 332 317 301 290 282 277 269 267 271 278 263 264 269 272 267 269 275 284 286 281 265 263 272 279 277 280 283
64 58 44 37 37 36 33 26 24 20 16 4 2 345 337 333 325 313 294 288 277 262 264 272 271 270 273 270 269 274 275 269 268 274 279 277 278 268 264 263 268 272 271
57 52 47 34 28 24 17 15 13 6 360 349 340 330 332 330 316 297 290 286 285 273 272 268 273 267 266 273 275 277 275 269 268 263 269 269 269 260 243 259 273 273 275
56 46 30 23 20 9 3 356 353 352 341 331 331 329 328 318 309 317 316 310 306 299 286 278 270 268 275 267 273 275 267 267 270 265 262 267 268 266 260 266 265 274 272
48 39 23 16 6 357 351 347 343 337 328 325 321 318 319 314 306 302 304 297 298 293 290 284 274 278 276 273 271 265 257 260 265 268 273 269 267 264 260 257 265 269 285
36 25 12 359 355 345 331 336 338 327 318 313 304 303 300 294 287 291 296 302 298 289 282 285 286 279 278 270 270 266 262 256 248 256 257 254 261 260 262 254 246 256 268
28 10 359 349 339 325 324 329 318 311 309 301 311 303 292 302 290 298 309 308 299 286 278 277 274 277 269 262 264 269 265 263 257 250 246 253 254 258 254 250 257 263 266
15 359 344 331 330 330 334 328 317 311 321 318 308 310 310 309 312 319 316 308 294 288 281 273 266 272 278 276 268 271 274 273 272 260 253 252 253 247 241 249 234 230 257
9 358 339 331 322 324 326 323 322 322 322 322 320 314 316 316 310 303 310 307 297 291 292 292 287 268 274 276 275 274 272 268 271 269 260 247 240 240 239 225 227 219 223
358 356 342 333 337 349 335 341 338 335 328 328 332 328 326 324 318 312 310 310 301 304 302 300 292 282 279 280 278 275 262 270 274 272 263 254 237 222 218 207 211 210 210
348 347 350 357 358 352 342 342 347 345 343 346 344 337 335 333 323 319 318 311 303 293 285 285 285 293 299 299 301 289 280 275 263 257 254 254 240 226 213 194 192 201 212
15 11 3 359 359 359 359 357 348 352 354 348 355 337 331 328 324 328 326 317 304 289 278 281 291 298 302 311 317 310 309 313 277 242 235 241 234 231 189 171 170 186 198
12 7 358 357 360 1 358 352 350 358 345 0 352 339 333 328 334 338 329 318 318 320 320 314 308 314 316 322 334 331 328 319 310 283 220 249 256 148 145 144 150 152 158
5 359 357 357 357 353 356 1 1 10 16 9 358 343 338 337 333 320 313 327 341 327 322 350 2 353 347 349 344 342 337 335 345 64 59 74 81 102 116 139 142 157 173
8 4 5 354 357 355 355 2 15 12 9 16 8 6 347 333 333 348 6 359 356 340 6 13 359 354 354 347 349 342 348 353 29 23 57 67 99 121 136 151 163 148 125
18 4 360 7 2 0 9 12 358 359 9 21 13 10 3 354 6 11 359 343 357 358 29 9 0 359 350 352 351 347 344 345 342 17 46 39 88 80 68 83 102 102 120
32 27 8 13 8 13 14 12 7 12 3 5 9 7 5 8 14 14 6 353 19 23 18 7 1 354 355 349 352 351 345 349 348 340 19 49 71 58 65 79 96 100 96
26 8 5 7 16 25 22 20 15 18 17 14 5 11 7 7 15 20 17 27 14 15 9 5 3 356 356 352 353 351 350 351 350 355 25 38 46 46 47 62 66 56 69
21 30 27 17 16 22 27 23 23 23 22 19 19 10 360 7 18 15 14 14 13 12 11 5 1 1 358 355 354 355 354 357 357 357 356 40 47 59 65 65 60 72 65
30 32 29 33 30 22 30 28 28 26 26 22 18 10 4 16 14 14 9 8 8 8 8 6 1 2 359 0 357 0 356 355 357 356 350 24 47 53 51 57 61 65 68
41 42 41 40 35 36 30 29 31 30 27 23 16 12 12 19 17 14 11 7 6 4 4 6 5 5 1 359 1 358 359 354 354 355 346 350 37 53 61 63 62 63 68
47 49 44 40 38 34 36 31 31 28 24 20 15 14 16 15 15 15 10 3 359 1 4 8 7 7 7 3 3 5 0 354 341 338 346 356 28 32 42 50 51 61 60
47 47 46 43 36 37 40 35 34 31 28 24 19 15 11 11 12 10 6 2 359 1 4 7 10 13 7 9 4 4 1 355 349 347 356 2 8 21 36 47 59 66 72
49 49 46 42 41 40 34 34 34 27 25 26 19 14 12 9 8 9 6 4 2 3 3 2 5 7 11 9 9 6 1 1 3 355 360 9 16 16 12 43 51 60 70
58 53 48 43 43 41 39 34 33 28 26 21 15 16 15 13 9 7 8 7 2 4 5 2 4 6 9 7 5 3 3 3 3 1 7 15 14 12 7 10 25 38 32